Monarch Pass, CO

1:26 AM MDT on October 19, 2017 (GMT -0600)
Monarch Pass

Weather History for KMYP - March, 2013

Change the Weather History Date:

Thursday, March 7, 2013

  Actual Average (KALS) Record (KALS)
Temperature  
Mean Temperature 30 °F -  
Max Temperature 37 °F 45 °F 63 °F (1972)
Min Temperature 23 °F 15 °F -12 °F (1939)
Degree Days  
Heating Degree Days 35    
Moisture  
Dew Point 4 °F    
Average Humidity 37    
Maximum Humidity 54    
Minimum Humidity 22    
Precipitation  
Precipitation 0.00 in - - ()
Sea Level Pressure  
Sea Level Pressure 30.23 in    
Wind  
Wind Speed 30 mph (SW)    
Max Wind Speed 37 mph    
Max Gust Speed 41 mph    
Averages and records for this station are not official NWS values.
T = Trace of Precipitation, MM = Missing Value Source: NWS Daily Summary

Daily Weather History Graph

Daily Weather History Graph

Search for Another Location

Airport or City:

Trip Planner

Search our weather history database for the weather conditions in past years. The results will help you decide how hot, cold, wet, or windy it might be!

Date:

Astronomy

Mar. 07, 2013 Rise Set
Actual Time 6:27 AM MST 6:04 PM MST
Civil Twilight 6:01 AM MST 6:30 PM MST
Nautical Twilight 5:30 AM MST 7:01 PM MST
Astronomical Twilight 4:59 AM MST 7:32 PM MST
Moon 3:26 AM MST (3/7) 1:58 PM MST (3/7)
Length of Visible Light 12h 29m
Length of Day
11h 36m
Waning Crescent, 19% of the Moon is Illuminated
Mar 7
Waning Crescent
Mar 11
New
Mar 19
First Quarter
Mar 27
Full
Apr 2
Last Quarter

Hourly Weather History & Observations

Time (MST) Temp. Windchill Dew Point Humidity Pressure Visibility Wind Dir Wind Speed Gust Speed Precip Events Conditions
12:19 AM 24.8 °F 6.4 °F 6.8 °F 46% 30.21 in - SW 36.8 mph - N/A   Clear
12:39 AM 24.8 °F 6.6 °F 6.8 °F 46% 30.21 in - SW 35.7 mph - N/A   Clear
12:59 AM 24.8 °F 6.6 °F 6.8 °F 46% 30.21 in - SW 35.7 mph 40.3 mph N/A   Clear
1:19 AM 24.8 °F 7.1 °F 6.8 °F 46% 30.21 in - SW 33.4 mph - N/A   Clear
1:39 AM 24.8 °F 6.6 °F 6.8 °F 46% 30.21 in - SW 35.7 mph - N/A   Clear
1:59 AM 24.8 °F 6.6 °F 6.8 °F 46% 30.20 in - SW 35.7 mph - N/A   Clear
2:19 AM 24.8 °F 7.1 °F 6.8 °F 46% 30.21 in - SW 33.4 mph - N/A   Clear
2:39 AM 24.8 °F 7.9 °F 6.8 °F 46% 30.20 in - SW 29.9 mph 38.0 mph N/A   Clear
2:59 AM 24.8 °F 7.6 °F 6.8 °F 46% 30.20 in - SW 31.1 mph - N/A   Clear
3:19 AM 23.0 °F 5.4 °F 6.8 °F 50% 30.20 in - SW 29.9 mph - N/A   Clear
3:39 AM 23.0 °F 5.4 °F 8.6 °F 54% 30.20 in - SW 29.9 mph - N/A   Clear
3:59 AM 23.0 °F 5.1 °F 8.6 °F 54% 30.19 in - SW 31.1 mph - N/A   Clear
4:19 AM 23.0 °F 5.4 °F 8.6 °F 54% 30.19 in - SW 29.9 mph 35.7 mph N/A   Clear
4:39 AM 23.0 °F 5.1 °F 8.6 °F 54% 30.20 in - SW 31.1 mph 38.0 mph N/A   Clear
4:59 AM 23.0 °F 4.1 °F 8.6 °F 54% 30.20 in - SW 35.7 mph 40.3 mph N/A   Clear
5:19 AM 23.0 °F 4.9 °F 8.6 °F 54% 30.20 in - SW 32.2 mph 39.1 mph N/A   Clear
5:39 AM 23.0 °F 4.1 °F 8.6 °F 54% 30.20 in - SW 35.7 mph - N/A   Clear
5:59 AM 23.0 °F 4.4 °F 6.8 °F 50% 30.20 in - SW 34.5 mph - N/A   Clear
6:19 AM 23.0 °F 4.6 °F 6.8 °F 50% 30.20 in - SW 33.4 mph - N/A   Clear
6:39 AM 23.0 °F 4.4 °F 6.8 °F 50% 30.20 in - SW 34.5 mph - N/A   Clear
6:59 AM 23.0 °F 4.1 °F 5.0 °F 46% 30.21 in - SW 35.7 mph 39.1 mph N/A   Clear
7:19 AM 24.8 °F 6.8 °F 5.0 °F 43% 30.22 in - SW 34.5 mph - N/A   Clear
7:39 AM 24.8 °F 7.3 °F 5.0 °F 43% 30.22 in - SW 32.2 mph - N/A   Clear
7:59 AM 24.8 °F 7.6 °F 5.0 °F 43% 30.23 in - SW 31.1 mph - N/A   Clear
8:19 AM 26.6 °F 10.0 °F 5.0 °F 40% 30.23 in - SW 31.1 mph 38.0 mph N/A   Clear
8:39 AM 26.6 °F 10.3 °F 5.0 °F 40% 30.23 in - SW 29.9 mph 36.8 mph N/A   Clear
8:59 AM 28.4 °F 11.6 °F 3.2 °F 34% 30.24 in - WSW 35.7 mph 40.3 mph N/A   Clear
9:19 AM 28.4 °F 12.3 °F 3.2 °F 34% 30.24 in - WSW 32.2 mph - N/A   Clear
9:39 AM 28.4 °F 12.7 °F 3.2 °F 34% 30.25 in - WSW 29.9 mph 35.7 mph N/A   Clear
9:59 AM 30.2 °F 15.4 °F 3.2 °F 32% 30.25 in - SW 28.8 mph 35.7 mph N/A   Clear
10:19 AM 30.2 °F 14.7 °F 1.4 °F 29% 30.25 in - WSW 32.2 mph 36.8 mph N/A   Clear
10:39 AM 30.2 °F 14.9 °F 1.4 °F 29% 30.26 in - SW 31.1 mph 41.4 mph N/A   Clear
10:59 AM 32.0 °F 17.9 °F 1.4 °F 27% 30.26 in - SW 28.8 mph 36.8 mph N/A   Clear
11:19 AM 32.0 °F 17.9 °F 1.4 °F 27% 30.27 in - WSW 28.8 mph 33.4 mph N/A   Clear
11:39 AM 32.0 °F 19.5 °F -0.4 °F 25% 30.27 in - WSW 21.9 mph 38.0 mph N/A   Clear
11:59 AM 32.0 °F 19.2 °F 1.4 °F 27% 30.27 in - WSW 23.0 mph 34.5 mph N/A   Clear
12:19 PM 32.0 °F 18.6 °F -0.4 °F 25% 30.26 in - WSW 25.3 mph 35.7 mph N/A   Clear
12:39 PM 33.8 °F 22.8 °F 1.4 °F 25% 30.26 in - West 18.4 mph 33.4 mph N/A   Clear
12:59 PM 33.8 °F 20.8 °F -0.4 °F 23% 30.25 in - West 26.5 mph 33.4 mph N/A   Clear
1:19 PM 33.8 °F 22.5 °F -2.2 °F 22% 30.25 in - WSW 19.6 mph 28.8 mph N/A   Clear
1:39 PM 33.8 °F 22.8 °F -0.4 °F 23% 30.25 in - West 18.4 mph 28.8 mph N/A   Clear
1:59 PM 33.8 °F 21.9 °F 1.4 °F 25% 30.24 in - West 21.9 mph 27.6 mph N/A   Clear
2:19 PM 35.6 °F 24.2 °F 1.4 °F 24% 30.24 in - West 21.9 mph 26.5 mph N/A   Clear
2:39 PM 35.6 °F 24.2 °F 3.2 °F 26% 30.24 in - SW 21.9 mph 27.6 mph N/A   Clear
2:59 PM 37.4 °F 28.5 °F 3.2 °F 24% 30.24 in - WSW 15.0 mph 23.0 mph N/A   Clear
3:19 PM 37.4 °F 28.5 °F 3.2 °F 24% 30.23 in - West 15.0 mph - N/A   Clear
3:39 PM 37.4 °F 25.9 °F 1.4 °F 22% 30.23 in - SW 25.3 mph 28.8 mph N/A   Clear
3:59 PM 35.6 °F 23.7 °F -0.4 °F 22% 30.23 in - SW 24.2 mph 38.0 mph N/A   Clear
4:19 PM 35.6 °F 23.7 °F -0.4 °F 22% 30.22 in - SW 24.2 mph 34.5 mph N/A   Clear
4:39 PM 35.6 °F 23.4 °F -0.4 °F 22% 30.22 in - SW 25.3 mph - N/A   Clear
4:59 PM 33.8 °F 21.9 °F -2.2 °F 22% 30.22 in - SW 21.9 mph - N/A   Clear
6:39 PM 30.2 °F 18.1 °F -0.4 °F 27% 30.25 in - SW 18.4 mph - N/A   Clear
6:59 PM 28.4 °F 16.2 °F -0.4 °F 29% 30.25 in - SW 17.3 mph - N/A   Clear
7:19 PM 26.6 °F 11.1 °F -0.4 °F 31% 30.25 in - SW 26.5 mph - N/A   Clear
7:39 PM 28.4 °F 13.3 °F -0.4 °F 29% 30.25 in - SW 27.6 mph - N/A   Clear
7:59 PM 28.4 °F 13.0 °F -0.4 °F 29% 30.24 in - SW 28.8 mph - N/A   Clear
8:19 PM 28.4 °F 12.0 °F 1.4 °F 31% 30.23 in - SW 33.4 mph 41.4 mph N/A   Clear
8:39 PM 28.4 °F 12.3 °F 3.2 °F 34% 30.24 in - SW 32.2 mph 39.1 mph N/A   Clear
8:59 PM 28.4 °F 13.3 °F 5.0 °F 37% 30.25 in - SW 27.6 mph 35.7 mph N/A   Clear
9:19 PM 28.4 °F 15.8 °F 5.0 °F 37% 30.25 in - SSW 18.4 mph 26.5 mph N/A   Clear
9:39 PM 26.6 °F 12.4 °F 6.8 °F 43% 30.25 in - SW 21.9 mph - N/A   Clear
9:59 PM 26.6 °F 11.4 °F 8.6 °F 47% 30.25 in - SW 25.3 mph - N/A   Clear
10:19 PM 28.4 °F 14.4 °F 8.6 °F 43% 30.25 in - SSW 23.0 mph 29.9 mph N/A   Clear
10:39 PM 28.4 °F 15.4 °F 8.6 °F 43% 30.25 in - SSW 19.6 mph 27.6 mph N/A   Clear
10:59 PM 28.4 °F 15.1 °F 10.4 °F 47% 30.25 in - SSW 20.7 mph 26.5 mph N/A   Mostly Cloudy
11:19 PM 28.4 °F 15.1 °F 10.4 °F 47% 30.25 in - SSW 20.7 mph 31.1 mph N/A   Overcast
11:39 PM 28.4 °F 15.4 °F 10.4 °F 47% 30.23 in - SSW 19.6 mph 28.8 mph N/A   Scattered Clouds
11:59 PM 26.6 °F 11.7 °F 10.4 °F 51% 30.23 in - SSW 24.2 mph - N/A   Clear